Overview Statistics Trail Chart Weather Telemetry Raw packets
 

This is the latest recevied weather packets stored in our database for station/object LU3MCV-13. If no packets are shown the sender has not sent any weather packets the latest 10 day(s).

<< 23 24 25 26 27 28 29 >>
Time Temp. Humidity Pressure Rain* Wind** Luminosity Snow
1777488997 27.22° C 8% 931.5 hPa - - - -
1777488096 26.11° C 8% 931.5 hPa - - - -
1777487197 27.22° C 8% 931.6 hPa - - - -
1777486297 26.11° C 8% 931.7 hPa - - - -
1777485397 26.11° C 8% 932 hPa - - - -
1777484497 25° C 8% 932.1 hPa - - - -
1777483596 26.11° C 8% 932.3 hPa - - - -
1777482696 25° C 8% 932.5 hPa - - - -
1777481796 25° C 8% 932.8 hPa - - - -
1777480896 23.89° C 10% 932.9 hPa - - - -
1777479996 23.89° C 10% 933 hPa - - - -
1777479097 23.89° C 11% 933.2 hPa - - - -
1777478196 22.78° C 11% 933.4 hPa - - - -
1777477296 22.78° C 12% 933.5 hPa - - - -
1777476396 22.22° C 12% 933.6 hPa - - - -
1777475496 22.22° C 13% 933.8 hPa - - - -
1777474596 21.11° C 13% 933.7 hPa - - - -
1777473696 21.11° C 12% 933.7 hPa - - - -
1777472796 21.11° C 12% 933.5 hPa - - - -
1777471895 21.11° C 15% 933.4 hPa - - - -
1777470995 21.11° C 16% 933.3 hPa - - - -
1777470096 20° C 20% 933.2 hPa - - - -
1777469196 18.89° C 21% 933 hPa - - - -
1777468296 17.78° C 23% 933 hPa - - - -
1777467396 17.22° C 24% 932.8 hPa - - - -

* Rain since midnight (hover to see other rain measurements)
** Current wind speed in m/s (hover to see current wind gust speed)